{"data":{"norad_id":48469,"epoch":"2026-05-25T04:21:04.347648Z","epoch_age_seconds":58563,"freshness":"FRESH","line1":"1 48469U 21040AT  26145.18130032  .00003180  00000+0  11418-3 0  9993","line2":"2 48469  53.1593 195.4086 0002058  84.5315 275.5922 15.31705225278227","mean_motion":15.31705225,"eccentricity":0.0002058,"inclination_deg":53.1593,"raan_deg":195.4086,"arg_perigee_deg":84.5315,"mean_anomaly_deg":275.5922,"bstar":0.00011418,"rev_number":27822,"period_min":94.012867260409,"perigee_km":469.31492413661,"apogee_km":472.13391549701,"semimajor_km":6848.8614198168,"source":"CELESTRAK","updated_at":"2026-05-25T13:38:16.720916Z"}}